RH
34 32 31 31 30 30 29 29 29 28 27 26 25 24 23 22 20 17 14 14 12 12 11 10 8 5 4 4 5 6 9 29 42 41 35 26 15 11 8 8 7 6 7 15 19
37 37 36 35 34 33 32 31 30 29 28 27 26 24 22 20 16 15 14 14 12 11 8 5 4 4 3 4 4 6 27 38 41 47 49 30 32 23 16 18 18 12 8 8 18
41 40 39 38 37 36 35 33 31 30 29 27 26 24 21 18 17 15 14 12 8 6 5 4 3 3 4 5 6 9 11 44 24 28 45 39 42 51 31 17 27 31 14 13 16
46 44 42 40 38 36 35 33 33 32 31 30 28 24 21 19 16 15 12 8 6 5 4 4 5 7 9 11 13 12 12 14 11 9 8 11 22 44 51 42 29 29 38 28 21
47 46 43 39 39 38 37 35 34 34 32 31 28 25 23 18 16 12 9 7 6 5 6 9 11 14 19 19 24 23 24 24 27 24 19 19 15 11 9 40 61 36 36 43 43
49 46 45 44 41 39 39 37 36 34 33 30 28 27 20 14 14 10 9 7 6 8 11 14 17 22 26 28 32 34 31 26 28 28 37 39 27 32 15 12 14 44 48 46 52
48 46 44 46 46 43 40 38 37 36 34 30 30 23 19 16 12 11 9 9 9 11 15 20 27 28 35 39 37 37 40 35 32 39 51 49 34 21 16 26 20 17 61 49 55
49 49 49 49 48 46 43 40 39 37 33 33 29 23 16 15 13 11 10 12 10 13 20 26 31 30 41 42 49 74 76 80 72 68 60 61 55 44 62 38 28 16 32 76 64
51 52 50 49 51 49 45 43 40 37 33 33 26 20 17 17 13 9 12 11 13 18 22 29 36 36 44 58 73 89 86 81 84 64 72 83 78 74 64 54 40 24 17 50 80
54 51 50 52 52 50 47 45 42 37 35 30 22 17 18 16 10 11 12 12 14 21 31 37 41 47 60 98 77 92 96 93 88 78 87 95 87 83 78 88 43 34 22 27 73
56 52 50 54 55 51 51 46 43 36 35 27 16 17 18 12 9 12 10 11 15 19 32 38 45 86 86 74 93 100 98 100 95 86 96 94 94 85 87 89 46 36 25 17 79
57 56 54 56 58 54 53 49 45 39 30 21 18 17 17 9 14 11 12 13 19 26 33 44 61 64 69 80 94 100 100 97 89 90 99 94 95 97 96 77 52 50 40 31 91
57 59 61 61 55 53 48 45 42 36 28 20 21 18 14 10 17 14 15 16 22 29 40 53 62 68 81 83 99 96 98 94 99 86 99 97 95 89 69 61 59 48 70 92 96
65 64 64 58 52 49 45 40 36 30 23 24 20 21 13 11 19 18 18 21 28 36 46 50 56 68 78 83 98 98 88 94 100 100 92 98 81 98 88 80 75 90 83 74 98
63 63 61 58 56 52 44 37 32 25 52 24 18 18 12 14 17 19 18 21 29 38 45 64 58 68 74 75 91 80 87 98 100 98 99 96 96 91 97 100 98 88 82 94 100
68 67 61 56 55 53 45 37 28 27 47 18 17 14 12 13 17 17 17 18 22 25 41 54 68 70 78 63 82 89 76 92 79 99 89 96 96 93 96 96 98 98 98 99 99
77 70 64 58 56 52 48 38 30 34 26 19 17 13 15 17 18 18 19 19 30 36 40 46 63 64 81 64 71 93 96 74 71 76 90 95 82 99 96 97 97 98 98 97 98
82 84 73 70 63 57 54 42 35 34 22 17 14 15 18 23 20 18 21 26 29 41 78 91 65 65 87 95 93 89 98 95 87 81 72 83 90 97 96 98 98 98 97 97 98
88 84 87 80 72 61 60 50 44 31 23 17 16 22 20 23 23 23 30 43 43 49 60 92 74 61 86 86 90 81 98 97 98 94 87 93 94 94 96 96 98 100 98 98 88
73 76 83 83 79 66 64 59 52 37 22 18 17 22 24 23 23 26 39 45 54 56 57 84 87 59 69 75 83 88 96 96 93 84 77 83 86 98 96 99 99 97 100 99 94
87 92 82 87 80 74 72 69 57 45 26 21 19 25 28 29 26 35 45 50 54 56 55 74 88 53 74 82 87 98 100 95 99 98 90 76 88 100 98 98 98 100 99 100 100
92 87 84 89 86 82 82 77 62 51 30 19 20 24 30 35 31 42 49 56 63 59 62 76 87 91 71 84 75 88 99 100 97 91 96 98 95 95 97 100 100 99 100 100 98
99 75 82 81 93 90 87 83 72 54 38 22 20 26 32 37 38 42 52 58 61 60 59 68 81 93 72 70 72 79 98 99 99 99 99 94 94 88 92 98 99 100 98 96 95
58 68 89 91 91 94 91 84 78 66 43 27 19 24 32 33 35 38 53 58 57 56 59 64 72 78 86 92 89 82 88 98 93 98 96 99 99 92 74 82 91 99 98 97 98
43 51 70 88 93 95 96 88 81 66 51 32 23 17 27 38 33 36 45 48 50 54 65 62 71 71 59 59 87 85 86 85 95 94 98 97 99 98 94 77 70 67 72 90 98
28 34 44 91 92 95 99 93 85 74 64 40 24 19 18 24 34 38 43 49 50 54 59 60 78 68 49 74 90 74 81 81 95 90 94 96 97 90 88 95 97 94 86 77 78
9 16 32 66 99 94 95 99 92 82 62 53 30 23 20 18 24 32 40 45 49 51 49 58 73 77 66 69 63 77 76 66 75 93 88 90 94 93 93 89 86 86 86 92 91
Wind_Speed
17 17 18 18 18 18 19 20 21 22 22 22 23 24 24 23 23 24 25 25 17 19 22 21 20 20 21 23 24 24 27 27 22 18 17 29 31 36 38 35 33 32 35 34 25
16 17 17 18 19 20 21 22 23 24 24 23 23 25 24 25 25 25 20 19 23 21 21 24 24 24 22 21 24 22 25 18 24 25 25 33 28 30 32 33 30 32 35 36 35
16 17 18 19 21 22 23 25 25 25 25 25 25 24 26 26 25 16 22 21 21 24 26 24 22 21 19 16 18 22 25 21 28 31 33 35 33 32 39 42 32 30 37 37 37
16 18 19 20 22 23 24 25 25 25 26 27 27 27 26 23 16 20 21 23 25 26 26 25 22 18 14 12 14 17 17 20 26 26 32 36 40 43 40 39 43 36 33 34 37
17 19 20 21 23 25 25 26 26 25 26 27 27 28 26 21 17 17 24 26 24 24 25 23 19 18 13 15 15 18 17 17 22 24 27 29 31 35 42 43 41 42 37 38 36
18 20 21 23 25 25 27 27 26 25 25 25 27 26 22 16 16 22 24 26 26 23 21 21 21 18 22 17 19 21 21 22 23 22 26 29 31 33 38 37 38 42 44 40 40
18 19 21 24 26 27 27 27 26 27 27 26 26 23 18 15 22 26 28 28 28 25 20 19 20 20 22 22 16 23 28 27 29 15 18 22 30 33 33 37 37 41 48 45 37
19 21 23 25 27 28 28 28 28 29 27 29 24 19 11 22 28 29 23 21 25 23 20 19 18 17 17 18 21 21 20 18 12 20 20 19 34 29 23 28 33 34 49 44 39
23 24 25 26 28 30 30 28 28 28 26 27 19 15 15 25 23 25 24 24 22 21 19 20 17 15 14 16 16 12 18 22 25 18 18 17 28 24 20 24 30 31 36 48 32
25 27 28 28 28 27 27 29 29 26 25 20 14 9 22 26 26 19 24 22 20 18 17 18 15 13 10 10 14 20 28 29 28 19 23 28 37 36 31 27 31 30 35 43 40
28 28 30 27 24 23 25 27 28 24 25 13 10 17 22 27 24 22 20 19 20 17 15 16 11 5 12 16 21 23 29 31 30 26 28 32 35 32 25 25 28 30 33 40 40
29 30 28 26 24 25 25 23 22 21 16 9 16 22 27 29 15 20 22 22 21 18 15 15 6 14 17 19 22 21 25 27 27 19 22 31 36 31 27 24 24 25 28 34 35
30 28 24 23 24 23 24 24 24 23 4 10 18 23 28 28 21 28 29 25 23 18 15 8 8 17 17 18 19 18 17 19 24 29 26 26 27 14 9 16 19 21 26 29 31
23 22 22 22 22 24 24 23 23 17 4 14 22 22 24 24 22 27 26 26 22 21 10 7 13 18 13 21 23 22 19 26 27 26 20 24 5 10 7 1 7 14 23 36 21
22 21 21 23 23 23 24 24 18 8 2 18 23 24 23 22 18 22 26 26 18 15 16 11 7 16 12 23 20 17 26 28 24 21 22 7 7 9 1 1 7 10 20 23 17
21 18 21 22 23 23 22 22 10 5 4 11 19 20 16 20 18 21 23 22 16 20 20 14 6 18 18 19 14 22 29 17 9 9 4 15 5 7 14 14 11 15 21 19 20
19 19 20 22 23 23 23 19 5 8 16 14 20 19 17 19 17 22 25 25 30 24 26 15 5 21 22 23 15 19 21 6 3 3 4 16 6 9 12 10 8 16 16 11 11
15 19 18 21 23 21 24 18 6 13 12 17 17 12 12 19 14 19 21 19 25 27 15 14 7 17 19 18 20 17 14 7 6 7 8 10 8 13 12 9 11 14 10 16 5
21 15 19 19 23 19 23 12 9 12 15 15 14 7 11 16 13 17 19 15 20 25 20 10 9 11 15 15 20 16 17 10 6 6 4 5 8 10 8 10 11 13 16 15 7
22 16 15 17 21 19 21 14 13 14 15 14 10 7 10 14 14 14 17 13 18 22 23 9 13 8 14 12 16 16 20 7 7 5 4 4 5 12 13 12 14 15 11 11 8
14 20 15 20 18 16 20 17 14 15 14 11 11 8 10 12 14 12 14 13 21 24 19 13 9 14 7 10 21 18 18 12 8 4 4 4 4 16 7 5 6 8 10 9 7
14 18 19 17 15 17 19 17 14 14 13 10 8 9 9 11 11 11 12 17 20 22 16 12 6 13 9 3 13 15 20 19 6 8 7 4 3 11 4 2 2 4 4 5 4
17 19 12 17 9 19 17 16 14 14 13 11 9 9 10 11 7 12 14 18 21 18 10 14 7 10 5 6 11 15 20 18 12 6 7 5 5 12 6 5 2 2 4 4 4
17 16 15 4 15 17 17 14 14 14 11 10 11 9 10 11 11 11 16 16 19 11 11 14 9 7 6 10 18 17 14 15 15 4 5 5 7 10 6 4 3 2 4 4 4
21 18 15 12 16 16 16 14 14 12 11 12 9 10 11 8 13 11 18 20 17 9 13 12 8 13 16 17 11 13 12 12 11 9 4 6 8 9 9 6 2 1 2 3 4
22 21 16 17 10 18 18 15 14 13 14 11 11 11 10 11 11 15 18 19 10 12 14 11 7 19 15 5 8 15 10 9 5 4 4 4 6 7 9 10 9 6 2 1 3
21 20 19 17 16 16 17 16 16 15 11 12 13 12 12 11 12 14 16 16 13 12 10 9 13 16 4 8 13 5 3 5 4 2 1 1 4 5 7 8 8 9 8 6 2
Wind_Direction
357 356 355 353 350 348 346 343 338 335 334 332 327 324 320 318 315 310 307 305 298 296 296 294 291 283 279 275 271 262 254 258 263 258 262 256 250 250 255 255 246 244 240 245 242
357 354 351 348 347 345 342 340 339 338 335 334 331 326 326 323 318 311 311 307 306 306 305 300 296 294 289 281 269 258 256 262 246 259 256 256 248 242 243 247 245 239 237 236 236
352 350 348 347 345 345 346 345 340 337 337 335 332 329 327 324 319 316 311 312 315 313 308 304 303 302 298 289 279 266 259 259 265 265 265 266 264 257 250 243 241 230 230 228 225
351 349 347 346 348 348 347 346 343 340 337 334 331 330 331 328 324 318 321 324 320 316 314 317 318 317 312 297 285 279 284 276 278 275 271 268 266 259 254 251 243 241 234 228 225
351 349 348 348 348 348 347 348 347 343 339 336 332 334 334 331 327 328 325 322 322 322 324 323 325 324 317 311 299 296 295 284 281 280 272 270 270 274 266 250 248 243 237 228 222
350 349 349 347 348 348 347 348 346 343 339 337 335 335 334 337 335 332 331 327 326 329 328 323 322 318 308 304 303 299 295 292 289 286 276 275 272 270 272 274 255 243 238 228 223
350 347 344 344 343 343 345 346 345 342 340 338 338 337 340 344 340 339 340 332 333 331 327 321 318 316 308 307 302 298 298 300 299 295 275 292 282 278 285 267 265 241 235 233 223
342 339 338 340 342 342 343 342 342 340 340 340 340 342 344 347 346 344 338 326 325 325 324 320 318 310 304 305 304 302 303 310 299 301 299 293 278 283 278 264 262 249 233 227 221
333 334 334 333 337 338 337 337 339 341 341 340 343 352 1 350 344 336 337 342 333 329 323 321 320 316 314 317 322 308 296 296 306 310 302 279 284 279 275 265 257 249 243 227 217
335 334 334 330 333 334 334 335 339 339 339 342 2 10 342 347 350 349 341 338 335 335 331 333 323 320 322 331 314 298 297 291 285 287 295 287 278 283 280 272 256 250 243 227 219
333 334 335 335 336 334 335 336 336 336 339 354 14 354 347 352 349 352 346 345 344 340 329 339 338 350 318 318 310 310 304 292 291 295 290 285 284 285 279 267 252 247 245 232 216
330 330 332 333 335 335 338 335 341 335 337 20 360 359 353 351 1 357 353 357 352 345 338 346 8 343 327 317 313 307 305 295 299 303 293 294 286 287 274 261 251 244 236 224 216
327 333 337 335 339 343 346 348 344 340 21 18 5 357 356 355 0 359 2 0 357 348 340 337 329 346 342 341 330 320 299 306 296 311 301 292 289 314 282 261 249 217 228 198 210
336 345 347 347 347 354 353 353 347 345 117 7 5 359 357 2 360 0 357 0 358 352 359 338 329 341 341 349 336 312 320 320 314 308 311 313 300 6 33 322 207 214 203 197 208
340 351 351 354 357 357 357 354 353 15 88 348 351 353 358 3 1 358 356 -0 3 1 348 334 330 345 343 350 333 317 324 315 303 294 302 331 262 345 335 102 138 188 208 205 217
359 360 360 2 359 355 356 355 8 27 32 343 344 350 356 359 1 359 3 357 7 5 358 355 6 2 348 353 339 335 337 325 307 287 261 6 322 17 5 352 84 161 184 205 200
356 358 3 1 358 358 2 1 23 48 337 335 343 349 357 1 2 2 4 8 18 10 359 16 11 356 351 355 3 350 354 327 300 320 353 2 31 26 9 41 80 119 147 179 132
353 4 5 4 0 359 2 9 42 346 347 344 343 346 359 1 359 2 3 12 13 14 350 349 345 1 355 3 348 3 1 351 315 342 339 11 18 2 24 48 65 88 92 141 90
333 345 349 356 356 3 2 15 2 350 346 346 343 349 354 357 357 357 358 6 5 6 6 343 311 12 0 8 11 348 352 323 288 267 273 9 8 25 41 73 92 95 95 93 93
313 318 339 345 353 357 2 8 359 354 350 348 355 343 347 355 358 4 1 349 358 353 354 333 304 337 356 13 16 17 3 340 340 324 348 52 37 356 29 63 87 102 111 125 147
308 320 327 334 347 353 359 355 353 350 348 346 340 337 343 351 354 360 2 355 348 345 349 346 323 335 9 11 15 9 10 4 317 348 326 348 33 355 26 80 100 105 109 120 146
311 327 329 336 339 350 348 345 345 346 344 338 337 337 339 348 344 354 354 350 346 344 349 348 310 310 342 352 3 5 7 3 341 348 340 322 33 10 54 107 161 137 117 112 98
317 316 326 334 354 340 341 340 339 341 340 333 331 331 337 345 340 338 345 345 344 341 349 342 324 324 339 345 338 354 360 359 347 346 360 334 15 14 51 75 145 191 189 188 175
306 312 322 351 345 333 335 337 331 335 333 331 327 328 327 335 336 326 334 342 342 342 343 338 308 286 277 290 307 319 353 0 4 351 355 31 16 35 50 63 83 169 210 217 201
304 311 319 314 322 324 330 331 330 325 330 328 328 328 321 325 328 332 333 339 337 328 332 332 301 308 309 296 286 314 327 351 360 27 52 44 54 48 66 86 105 158 240 237 238
295 306 308 308 311 319 331 329 326 321 323 320 322 324 323 313 312 319 325 332 331 323 322 327 308 321 330 298 289 312 306 326 342 0 49 40 55 65 67 72 85 96 100 272 248
293 295 298 299 301 307 315 318 317 314 319 318 318 319 320 315 304 310 316 315 307 307 319 323 332 333 293 315 307 303 355 333 325 302 305 43 104 88 74 63 59 62 75 88 115